When you browse on this site, cookies collect data to enhance your experience and personalize the content and advertising you see.
Visit our Privacy Policy to learn more. By continuing to use the site, you agree to this use of cookies and data.
  • In Sweden
  • List of Countries
  • For 7 days
  • Water Temperature
  • Satellite Maps
  • Weather Map
  • Weather Widgets
  • user-avatar
    Login

    Hourly Weather Arvika

    Today, 21 March, Thursday

    Time Temperature Precipitation Wind Pressure Humidity
    00:00 +3°C° 0 mm 3 mps 759 mmHg 86%
    01:00 +3°C° 0 mm 2 mps 759 mmHg 88%
    02:00 +3°C° 0.2 mm 3 mps 758 mmHg 89%
    03:00 +4°C° 0.2 mm 3 mps 758 mmHg 90%
    04:00 +4°C° 0.2 mm 4 mps 757 mmHg 92%
    05:00 +5°C° 0 mm 4 mps 757 mmHg 92%
    06:00 +6°C° 0 mm 5 mps 756 mmHg 91%
    07:00 +7°C° 0 mm 6 mps 756 mmHg 91%
    08:00 +8°C° 0 mm 6 mps 755 mmHg 88%
    09:00 +9°C° 0 mm 6 mps 755 mmHg 85%
    10:00 +10°C° 0 mm 6 mps 755 mmHg 81%
    11:00 +10°C° 0 mm 6 mps 755 mmHg 79%
    12:00 +11°C° 0 mm 6 mps 756 mmHg 77%
    13:00 +13°C° 0 mm 5 mps 756 mmHg 75%
    14:00 +13°C° 0 mm 5 mps 756 mmHg 72%
    15:00 +12°C° 0 mm 5 mps 757 mmHg 69%
    16:00 +12°C° 0 mm 5 mps 758 mmHg 67%
    17:00 +9°C° 0 mm 5 mps 759 mmHg 71%
    18:00 +7°C° 0 mm 4 mps 760 mmHg 75%
    19:00 +5°C° 0 mm 3 mps 761 mmHg 79%
    20:00 +5°C° 0 mm 2 mps 763 mmHg 82%
    21:00 +5°C° 0 mm 1 mps 764 mmHg 84%
    22:00 +2°C° 0 mm 0 mps 765 mmHg 87%
    23:00 +2°C° 0 mm 0 mps 766 mmHg 86%

    Tomorrow, 22 March, Friday

    Time Temperature Precipitation Wind Pressure Humidity
    00:00 +2°C° 0 mm 0 mps 766 mmHg 85%
    01:00 +2°C° 0 mm 1 mps 767 mmHg 84%
    02:00 +2°C° 0 mm 1 mps 767 mmHg 83%
    03:00 +2°C° 0 mm 1 mps 767 mmHg 82%
    04:00 +1°C° 0 mm 1 mps 767 mmHg 81%
    05:00 +2°C° 0 mm 1 mps 767 mmHg 80%
    06:00 +1°C° 0 mm 2 mps 767 mmHg 79%
    07:00 +1°C° 0 mm 2 mps 767 mmHg 78%
    08:00 +2°C° 0 mm 3 mps 767 mmHg 77%
    09:00 +3°C° 0 mm 3 mps 766 mmHg 75%
    10:00 +5°C° 0 mm 4 mps 766 mmHg 73%
    11:00 +6°C° 0 mm 4 mps 765 mmHg 70%
    12:00 +7°C° 0 mm 4 mps 764 mmHg 67%
    13:00 +8°C° 0 mm 4 mps 763 mmHg 63%
    14:00 +8°C° 0 mm 4 mps 762 mmHg 69%
    15:00 +7°C° 0 mm 4 mps 762 mmHg 76%
    16:00 +6°C° 0 mm 4 mps 761 mmHg 82%
    17:00 +7°C° 0.2 mm 4 mps 760 mmHg 85%
    18:00 +7°C° 0.2 mm 4 mps 759 mmHg 88%
    19:00 +7°C° 0.2 mm 5 mps 758 mmHg 91%
    20:00 +8°C° 0.2 mm 5 mps 757 mmHg 90%
    21:00 +8°C° 0.2 mm 5 mps 757 mmHg 89%
    22:00 +8°C° 0.2 mm 5 mps 756 mmHg 88%
    23:00 +7°C° 0.1 mm 5 mps 755 mmHg 88%

    Day after tomorrow, 23 March, Saturday

    Time Temperature Precipitation Wind Pressure Humidity
    00:00 +7°C° 0.1 mm 6 mps 755 mmHg 88%
    01:00 +7°C° 0.1 mm 6 mps 754 mmHg 88%
    02:00 +6°C° 0.1 mm 5 mps 754 mmHg 86%
    03:00 +6°C° 0.1 mm 5 mps 754 mmHg 85%
    04:00 +6°C° 0.1 mm 5 mps 754 mmHg 84%
    05:00 +5°C° 0 mm 5 mps 755 mmHg 79%
    06:00 +4°C° 0 mm 4 mps 755 mmHg 74%
    07:00 +3°C° 0 mm 4 mps 756 mmHg 69%
    08:00 +3°C° 0 mm 5 mps 756 mmHg 64%
    09:00 +3°C° 0 mm 6 mps 757 mmHg 59%
    10:00 +4°C° 0 mm 6 mps 757 mmHg 54%
    11:00 +5°C° 0 mm 6 mps 757 mmHg 51%
    12:00 +5°C° 0 mm 6 mps 758 mmHg 49%
    13:00 +5°C° 0 mm 7 mps 758 mmHg 46%
    14:00 +5°C° 0 mm 6 mps 758 mmHg 45%
    15:00 +5°C° 0 mm 6 mps 758 mmHg 45%
    16:00 +5°C° 0 mm 6 mps 759 mmHg 44%
    17:00 +5°C° 0 mm 5 mps 759 mmHg 48%
    18:00 +4°C° 0 mm 4 mps 760 mmHg 52%
    19:00 +1°C° 0 mm 4 mps 760 mmHg 56%
    20:00 +1°C° 0 mm 4 mps 760 mmHg 57%
    21:00 +1°C° 0 mm 4 mps 761 mmHg 59%
    22:00 +1°C° 0 mm 5 mps 761 mmHg 61%
    23:00 0°C° 0 mm 4 mps 762 mmHg 64%

    24 March, Sunday

    Time Temperature Precipitation Wind Pressure Humidity
    00:00 0°C° 0 mm 4 mps 762 mmHg 67%
    01:00 +1°C° 0 mm 3 mps 762 mmHg 70%
    02:00 0°C° 0 mm 3 mps 762 mmHg 74%
    03:00 0°C° 0 mm 3 mps 762 mmHg 77%
    04:00 -1°C° 0 mm 2 mps 762 mmHg 81%
    05:00 0°C° 0 mm 3 mps 762 mmHg 79%
    06:00 0°C° 0 mm 3 mps 762 mmHg 77%
    07:00 0°C° 0 mm 3 mps 762 mmHg 75%
    08:00 +1°C° 0 mm 4 mps 761 mmHg 69%
    09:00 +4°C° 0 mm 4 mps 761 mmHg 63%
    10:00 +5°C° 0 mm 5 mps 761 mmHg 57%
    11:00 +6°C° 0 mm 5 mps 760 mmHg 55%
    12:00 +5°C° 0 mm 6 mps 759 mmHg 54%
    13:00 +7°C° 0 mm 6 mps 759 mmHg 52%
    14:00 +5°C° 0 mm 6 mps 758 mmHg 56%
    15:00 +5°C° 0 mm 6 mps 757 mmHg 59%
    16:00 +4°C° 0 mm 6 mps 757 mmHg 63%
    17:00 +5°C° 0 mm 5 mps 756 mmHg 66%
    18:00 +3°C° 0 mm 5 mps 755 mmHg 69%
    19:00 +3°C° 0 mm 4 mps 754 mmHg 72%
    20:00 +2°C° 0 mm 5 mps 753 mmHg 74%
    21:00 +1°C° 0 mm 5 mps 752 mmHg 75%
    22:00 +1°C° 0 mm 6 mps 751 mmHg 76%
    23:00 +2°C° 0.2 mm 5 mps 749 mmHg 75%

    25 March, Monday

    Time Temperature Precipitation Wind Pressure Humidity
    00:00 +2°C° 0.2 mm 5 mps 748 mmHg 74%
    01:00 +2°C° 0.2 mm 5 mps 746 mmHg 73%
    02:00 +2°C° 0.1 mm 5 mps 746 mmHg 73%
    03:00 +1°C° 0.1 mm 5 mps 745 mmHg 73%
    04:00 +1°C° 0.1 mm 5 mps 744 mmHg 73%
    05:00 0°C° 0 mm 5 mps 744 mmHg 66%
    06:00 -1°C° 0 mm 5 mps 744 mmHg 59%
    07:00 -1°C° 0 mm 5 mps 744 mmHg 52%
    08:00 0°C° 0 mm 5 mps 744 mmHg 52%
    09:00 +1°C° 0 mm 5 mps 745 mmHg 53%
    10:00 +2°C° 0 mm 5 mps 745 mmHg 53%
    11:00 +2°C° 0 mm 5 mps 745 mmHg 52%
    12:00 +2°C° 0 mm 5 mps 746 mmHg 51%
    13:00 +2°C° 0 mm 5 mps 746 mmHg 50%
    14:00 +3°C° 0 mm 6 mps 746 mmHg 48%
    15:00 +3°C° 0 mm 7 mps 747 mmHg 46%
    16:00 +4°C° 0 mm 7 mps 747 mmHg 43%
    17:00 +2°C° 0 mm 8 mps 748 mmHg 44%
    18:00 +1°C° 0 mm 8 mps 748 mmHg 45%
    19:00 0°C° 0 mm 8 mps 749 mmHg 47%
    20:00 0°C° 0 mm 7 mps 750 mmHg 51%
    21:00 0°C° 0 mm 7 mps 751 mmHg 56%
    22:00 -1°C° 0 mm 6 mps 752 mmHg 61%
    23:00 -1°C° 0 mm 6 mps 752 mmHg 61%

    26 March, Tuesday

    Time Temperature Precipitation Wind Pressure Humidity
    00:00 -1°C° 0 mm 6 mps 753 mmHg 60%
    01:00 0°C° 0 mm 5 mps 754 mmHg 59%
    02:00 0°C° 0 mm 5 mps 755 mmHg 61%
    03:00 0°C° 0 mm 5 mps 757 mmHg 62%
    04:00 0°C° 0 mm 5 mps 758 mmHg 64%
    05:00 0°C° 0 mm 4 mps 759 mmHg 62%
    06:00 -1°C° 0 mm 4 mps 760 mmHg 60%
    07:00 -1°C° 0 mm 4 mps 761 mmHg 57%
    08:00 +1°C° 0 mm 4 mps 761 mmHg 51%
    09:00 +3°C° 0 mm 4 mps 762 mmHg 45%
    10:00 +4°C° 0 mm 4 mps 762 mmHg 39%
    11:00 +5°C° 0 mm 4 mps 763 mmHg 40%
    12:00 +5°C° 0 mm 4 mps 763 mmHg 40%
    13:00 +6°C° 0 mm 4 mps 763 mmHg 41%
    14:00 +6°C° 0 mm 4 mps 763 mmHg 41%
    15:00 +7°C° 0 mm 3 mps 763 mmHg 42%
    16:00 +7°C° 0 mm 3 mps 763 mmHg 42%
    17:00 +5°C° 0 mm 2 mps 763 mmHg 48%
    18:00 +5°C° 0 mm 1 mps 763 mmHg 54%
    19:00 +3°C° 0 mm 1 mps 763 mmHg 60%
    20:00 +3°C° 0 mm 1 mps 763 mmHg 61%
    21:00 +3°C° 0 mm 1 mps 763 mmHg 63%
    22:00 +2°C° 0 mm 1 mps 763 mmHg 65%
    23:00 +2°C° 0 mm 1 mps 762 mmHg 68%
    Show more